#timestamp,LO_Frequency,Hit,StdDev 
1558256415.1,286046999.0,N
1558256435.9,286047000.8,N
1558256455.7,286046998.6,N
1558256475.6,286047000.4,N
1558256495.4,286047000.3,N
1558256515.2,286047001.2,N
1558256535.1,286047001.0,N
1558256536.0,286047001.0,N
1558256555.8,286046999.7,N
1558256575.7,286047002.7,N
1558256595.5,286047002.2,N
1558256615.3,286047001.8,N
1558256635.2,286047000.0,N
1558256655.0,286047001.5,N
1558256655.9,286047001.5,N
1558256675.7,286047002.0,N
1558256695.6,286047001.9,N
1558256715.4,286047002.0,N
1558256735.3,286047000.3,N
1558256755.1,286047002.2,N
1558256775.8,286046999.9,N
1558256795.7,286047004.0,Y
1558256815.5,286047002.7,P
1558256835.4,286046999.7,N
1558256855.2,286047000.4,N
1558256875.0,286047001.0,N
1558256875.9,286047001.0,N
1558256895.8,286046999.5,N
1558256915.6,286046995.9,Y
1558256935.5,286046992.6,P
1558256955.3,286046990.1,N
1558256975.1,286046990.3,N
1558256995.9,286046991.4,N
1558257015.7,286046991.0,N
1558257035.5,286046991.5,N
1558257055.4,286046989.1,Y
1558257075.2,286046994.9,P
1558257095.1,286046997.8,N
1558257096.0,286046997.8,N
1558257115.8,286046997.8,N
1558257135.6,286046998.8,N
1558257155.5,286046998.1,N
1558257175.3,286047000.6,N
1558257195.1,286047002.6,N
1558257215.9,286047002.2,N
1558257235.7,286047002.6,N
1558257255.6,286047001.7,N
1558257275.4,286047003.8,N
1558257295.2,286047002.0,N
1558257315.1,286047001.8,N
1558257316.0,286047001.8,N
1558257335.8,286046999.7,N
1558257355.6,286047002.4,N
1558257375.5,286047002.8,N
1558257395.3,286047000.5,N
1558257415.2,286046998.2,N
1558257435.9,286046999.4,N
1558257455.7,286046999.2,N
1558257475.6,286046999.4,N
1558257495.4,286046999.1,N
1558257515.2,286046999.6,N
1558257535.1,286046999.5,N
1558257536.0,286046999.5,N
1558257555.8,286046998.8,N
1558257605.7,286046998.7,E
1558257615.6,286047000.5,N
1558257635.4,286047001.0,P
1558257655.3,286047001.2,P
1558257675.1,286047000.9,N
1558257695.9,286047001.1,Y
1558257715.7,286047001.2,P
1558257735.5,286046998.3,P
1558257755.4,286047000.8,N
1558257775.2,286046998.1,N
1558257795.0,286046998.7,N
1558257795.9,286046998.7,N
1558257815.8,286046998.5,N
1558257835.6,286046998.4,N
1558257855.5,286046999.0,N
1558257875.3,286047001.0,N
1558257895.1,286047000.8,N
1558257915.9,286046998.8,N
1558257935.7,286046998.1,N
1558257955.5,286047000.2,N
1558257975.4,286047000.5,N
1558257995.2,286047002.3,N
1558258015.1,286047002.7,N
1558258016.0,286047002.7,N
1558258035.8,286047000.3,N
1558258055.6,286046998.5,N
1558258075.5,286047000.9,N
1558258095.3,286047002.0,N
1558258115.1,286046999.8,N
1558258135.9,286047000.4,N
1558258155.7,286047000.6,N
1558258175.6,286046996.5,N
1558258195.4,286046995.5,N
1558258215.2,286046993.9,Y
1558258235.1,286046992.2,P
1558258236.0,286046992.2,N
1558258255.8,286046992.2,N
1558258275.6,286046992.0,N
1558258295.5,286046990.1,Y
1558258315.3,286046996.7,P
1558258335.2,286046999.4,N
1558258355.9,286046997.6,N
1558258375.7,286046995.0,N
1558258395.6,286046995.8,N
1558258415.4,286046993.4,Y
1558258435.3,286046999.5,P
1558258455.1,286046999.6,N
1558258456.0,286046999.6,N
1558258475.8,286046997.8,N
1558258495.7,286046993.7,Y
1558258515.5,286046993.5,P
1558258535.3,286046990.7,P
1558258555.2,286046988.9,P
1558258575.0,286046987.2,Y
1558258575.9,286046987.2,P
1558258595.8,286046993.6,N
1558258615.6,286046986.3,P
1558258635.4,286046993.8,N
1558258655.3,286046993.3,N
1558258675.1,286046993.8,N
1558258695.8,286046994.4,N
1558258715.7,286046993.4,N
1558258735.5,286046993.5,N
1558258755.4,286046992.3,N
1558258775.2,286046990.1,Y
1558258795.0,286047000.4,P
1558258795.9,286047000.4,N
1558258815.8,286047000.6,N
1558258835.6,286047001.0,N
1558258855.5,286047000.0,N
1558258875.3,286047002.5,N
1558258895.1,286047002.1,N
1558258915.9,286047003.9,N
1558258935.7,286047003.7,N
1558258955.5,286047003.4,N
1558258975.4,286047003.8,N
1558258995.2,286047003.5,N
1558259015.1,286047005.3,N
1558259016.0,286047005.3,N
1558259035.8,286047002.9,N
1558259055.6,286047005.4,N
1558259075.5,286047003.1,N
1558259095.3,286047001.8,N
1558259115.1,286047004.3,N
1558259135.9,286047005.6,N
1558259155.7,286047005.0,N
1558259175.6,286047007.3,N
1558259195.4,286047009.0,Y
1558259215.2,286047004.6,P
1558259235.1,286047007.2,P
1558259236.0,286047007.2,P
1558259255.8,286047008.2,Y
1558259275.7,286047003.4,P
1558259295.5,286047006.0,P
1558259315.3,286047003.1,N
1558259335.2,286047005.6,Y
1558259355.0,286047000.5,P
1558259355.9,286047000.5,N
1558259375.7,286047001.2,N
1558259395.6,286046998.9,N
1558259415.4,286046998.6,N
1558259435.3,286047000.0,N
1558259455.1,286047002.2,N
1558259456.0,286047002.2,N
1558259475.8,286047001.6,N
1558259495.7,286047001.5,N
1558259515.5,286047001.4,N
1558259535.3,286047003.9,N
1558259555.2,286047003.9,N
1558259575.0,286047003.0,N
1558259575.9,286047003.0,N
1558259595.8,286047004.0,N
1558259615.6,286047002.5,N
1558259635.4,286047002.4,N
1558259655.3,286047001.9,N
1558259675.1,286047002.7,N
1558259695.8,286047002.7,N
1558259715.7,286047002.4,N
1558259735.5,286047002.7,N
1558259755.4,286047002.3,N
1558259775.2,286047001.7,N
1558259795.0,286047002.7,N
1558259795.9,286047002.7,N
1558259815.8,286047002.4,N
1558259835.6,286047002.0,N
1558259855.5,286047004.2,Y
1558259875.3,286046999.7,P
1558259895.1,286047000.0,N
1558259915.9,286047000.8,N
1558259935.7,286046998.5,N
1558259955.5,286046996.9,N
1558259975.4,286046998.8,N
1558259995.2,286046998.8,N
